Time,TemperatureF,DewpointF,PressureIn,WindDirection,WindDirectionDegrees,WindSpeedMPH,WindSpeedGustMPH,Humidity,HourlyPrecipIn,Conditions,Clouds,dailyrainin,SolarRadiationWatts/m^2,SoftwareType,DateUTC
2013-01-17 00:02:00,48.0,4.0,-100.00,WSW,241,12.0,24.0,16,0.00,,,0.00,0.000000,,2013-01-17 08:02:00,
2013-01-17 00:53:00,48.0,4.0,-100.00,SW,220,9.0,24.0,16,-99.99,,,0.00,0.000000,,2013-01-17 08:53:00,
2013-01-17 01:02:00,48.0,4.0,-100.00,SW,220,9.0,24.0,16,-99.99,,,0.00,0.000000,,2013-01-17 09:02:00,
2013-01-17 01:52:00,48.0,3.0,-100.00,West,264,12.0,23.0,15,-99.99,,,0.00,0.000000,,2013-01-17 09:52:00,
2013-01-17 02:53:00,45.0,2.0,-100.00,SSW,207,6.0,26.0,16,-99.99,,,0.00,0.000000,,2013-01-17 10:53:00,
2013-01-17 03:02:00,45.0,2.0,-100.00,SSW,207,6.0,26.0,16,-99.99,,,0.00,0.000000,,2013-01-17 11:02:00,
2013-01-17 03:12:00,45.0,2.0,-100.00,SSW,207,6.0,26.0,16,-99.99,,,0.00,0.000000,,2013-01-17 11:12:00,
2013-01-17 03:22:00,45.0,2.0,-100.00,SSW,207,6.0,26.0,16,-99.99,,,0.00,0.000000,,2013-01-17 11:22:00,
2013-01-17 03:53:00,44.0,3.0,-100.00,SSW,211,7.0,19.0,18,-99.99,,,0.00,0.000000,,2013-01-17 11:53:00,
2013-01-17 04:02:00,44.0,3.0,-100.00,SSW,211,7.0,19.0,18,-99.99,,,0.00,0.000000,,2013-01-17 12:02:00,
2013-01-17 04:53:00,45.0,2.0,-100.00,WSW,240,12.0,29.0,16,0.00,,,0.00,0.000000,,2013-01-17 12:53:00,
2013-01-17 05:03:00,45.0,2.0,-100.00,WSW,240,12.0,29.0,16,0.00,,,0.00,0.000000,,2013-01-17 13:03:00,
2013-01-17 05:53:00,45.0,2.0,-100.00,SSW,211,12.0,27.0,16,-99.99,,,0.00,0.000000,,2013-01-17 13:53:00,
2013-01-17 06:03:00,45.0,2.0,-100.00,SSW,211,12.0,27.0,16,-99.99,,,0.00,0.000000,,2013-01-17 14:03:00,
2013-01-17 06:53:00,44.0,1.0,-100.00,SSW,199,12.0,28.0,16,-99.99,,,0.00,0.000000,,2013-01-17 14:53:00,
2013-01-17 07:03:00,44.0,1.0,-100.00,SSW,199,12.0,28.0,16,-99.99,,,0.00,0.000000,,2013-01-17 15:03:00,
2013-01-17 07:53:00,43.0,0.0,-100.00,South,186,11.0,32.0,16,-99.99,,,-99.99,12.000000,,2013-01-17 15:53:00,
2013-01-17 08:02:00,43.0,0.0,-100.00,South,186,11.0,32.0,16,-99.99,,,-99.99,12.000000,,2013-01-17 16:02:00,
2013-01-17 08:53:00,46.0,2.0,-100.00,South,169,5.0,22.0,16,0.00,,,-99.99,199.000000,,2013-01-17 16:53:00,
2013-01-17 09:02:00,46.0,2.0,-100.00,South,169,5.0,22.0,16,0.00,,,-99.99,199.000000,,2013-01-17 17:02:00,
2013-01-17 09:53:00,49.0,2.0,-100.00,South,183,5.0,15.0,14,0.00,,,0.00,438.000000,,2013-01-17 17:53:00,
2013-01-17 10:03:00,49.0,2.0,-100.00,South,183,5.0,15.0,14,0.00,,,0.00,438.000000,,2013-01-17 18:03:00,
2013-01-17 10:12:00,49.0,2.0,-100.00,South,183,5.0,15.0,14,0.00,,,0.00,438.000000,,2013-01-17 18:12:00,
2013-01-17 10:22:00,49.0,2.0,-100.00,South,183,5.0,15.0,14,0.00,,,0.00,438.000000,,2013-01-17 18:22:00,
2013-01-17 10:53:00,52.0,3.0,-100.00,South,189,6.0,17.0,13,0.00,,,0.00,632.000000,,2013-01-17 18:53:00,
2013-01-17 11:03:00,52.0,3.0,-100.00,South,189,6.0,17.0,13,0.00,,,0.00,632.000000,,2013-01-17 19:03:00,
2013-01-17 11:12:00,52.0,3.0,-100.00,South,189,6.0,17.0,13,0.00,,,0.00,632.000000,,2013-01-17 19:12:00,
2013-01-17 11:22:00,52.0,3.0,-100.00,South,189,6.0,17.0,13,0.00,,,0.00,632.000000,,2013-01-17 19:22:00,
2013-01-17 11:53:00,52.0,1.0,-100.00,South,191,5.0,15.0,12,0.00,,,0.00,761.000000,,2013-01-17 19:53:00,
2013-01-17 12:02:00,52.0,1.0,-100.00,South,191,5.0,15.0,12,0.00,,,0.00,761.000000,,2013-01-17 20:02:00,
2013-01-17 12:53:00,55.0,3.0,-100.00,SSE,167,1.0,9.0,12,0.00,,,0.00,822.000000,,2013-01-17 20:53:00,
2013-01-17 13:02:00,55.0,3.0,-100.00,SSE,167,1.0,9.0,12,0.00,,,0.00,822.000000,,2013-01-17 21:02:00,
2013-01-17 13:12:00,55.0,3.0,-100.00,SSE,167,1.0,9.0,12,0.00,,,0.00,822.000000,,2013-01-17 21:12:00,
2013-01-17 13:22:00,55.0,3.0,-100.00,SSE,167,1.0,9.0,12,0.00,,,0.00,822.000000,,2013-01-17 21:22:00,
2013-01-17 13:53:00,57.0,3.0,-100.00,NE,53,0.0,8.0,11,0.00,,,0.00,770.000000,,2013-01-17 21:53:00,
2013-01-17 14:03:00,57.0,3.0,-100.00,NE,53,0.0,8.0,11,0.00,,,0.00,770.000000,,2013-01-17 22:03:00,
2013-01-17 14:52:00,54.0,3.0,-100.00,ESE,121,1.0,6.0,12,0.00,,,0.00,666.000000,,2013-01-17 22:52:00,
2013-01-17 15:02:00,54.0,3.0,-100.00,ESE,121,1.0,6.0,12,0.00,,,0.00,666.000000,,2013-01-17 23:02:00,
2013-01-17 15:12:00,54.0,3.0,-100.00,ESE,121,1.0,6.0,12,0.00,,,0.00,666.000000,,2013-01-17 23:12:00,
2013-01-17 15:22:00,54.0,3.0,-100.00,ESE,121,1.0,6.0,12,0.00,,,0.00,666.000000,,2013-01-17 23:22:00,
2013-01-17 15:53:00,55.0,1.0,-100.00,SE,139,4.0,7.0,11,0.00,,,0.00,483.000000,,2013-01-17 23:53:00,
2013-01-17 16:02:00,55.0,1.0,-100.00,SE,139,4.0,7.0,11,0.00,,,0.00,483.000000,,2013-01-18 00:02:00,
2013-01-17 16:12:00,55.0,1.0,-100.00,SE,139,4.0,7.0,11,0.00,,,0.00,483.000000,,2013-01-18 00:12:00,
2013-01-17 16:22:00,55.0,1.0,-100.00,SE,139,4.0,7.0,11,0.00,,,0.00,483.000000,,2013-01-18 00:22:00,
2013-01-17 16:53:00,51.0,0.0,-100.00,South,184,2.0,7.0,12,0.00,,,0.00,212.000000,,2013-01-18 00:53:00,
2013-01-17 17:02:00,51.0,0.0,-100.00,South,184,2.0,7.0,12,0.00,,,0.00,212.000000,,2013-01-18 01:02:00,
2013-01-17 17:12:00,51.0,0.0,-100.00,South,184,2.0,7.0,12,0.00,,,0.00,212.000000,,2013-01-18 01:12:00,
2013-01-17 17:22:00,51.0,0.0,-100.00,South,184,2.0,7.0,12,0.00,,,0.00,212.000000,,2013-01-18 01:22:00,
2013-01-17 17:53:00,48.0,0.0,-100.00,SW,224,8.0,12.0,13,0.00,,,0.00,9.000000,,2013-01-18 01:53:00,
2013-01-17 18:02:00,48.0,0.0,-100.00,SW,224,8.0,12.0,13,0.00,,,0.00,9.000000,,2013-01-18 02:02:00,
2013-01-17 18:12:00,48.0,0.0,-100.00,SW,224,8.0,12.0,13,0.00,,,0.00,9.000000,,2013-01-18 02:12:00,
2013-01-17 18:22:00,48.0,0.0,-100.00,SW,224,8.0,12.0,13,0.00,,,0.00,9.000000,,2013-01-18 02:22:00,
2013-01-17 18:53:00,48.0,0.0,-100.00,SSW,212,8.0,12.0,13,0.00,,,0.00,0.000000,,2013-01-18 02:53:00,
2013-01-17 19:02:00,48.0,0.0,-100.00,SSW,212,8.0,12.0,13,0.00,,,0.00,0.000000,,2013-01-18 03:02:00,
2013-01-17 19:12:00,48.0,0.0,-100.00,SSW,212,8.0,12.0,13,0.00,,,0.00,0.000000,,2013-01-18 03:12:00,
2013-01-17 19:22:00,48.0,0.0,-100.00,SSW,212,8.0,12.0,13,0.00,,,0.00,0.000000,,2013-01-18 03:22:00,
2013-01-17 19:53:00,50.0,1.0,-100.00,SW,215,4.0,9.0,13,0.00,,,0.00,0.000000,,2013-01-18 03:53:00,
2013-01-17 20:02:00,50.0,1.0,-100.00,SW,215,4.0,9.0,13,0.00,,,0.00,0.000000,,2013-01-18 04:02:00,
2013-01-17 20:12:00,50.0,1.0,-100.00,SW,215,4.0,9.0,13,0.00,,,0.00,0.000000,,2013-01-18 04:12:00,
2013-01-17 20:22:00,50.0,1.0,-100.00,SW,215,4.0,9.0,13,0.00,,,0.00,0.000000,,2013-01-18 04:22:00,
2013-01-17 20:53:00,48.0,0.0,-100.00,South,187,0.0,7.0,13,0.00,,,0.00,0.000000,,2013-01-18 04:53:00,
2013-01-17 21:03:00,48.0,0.0,-100.00,South,187,0.0,7.0,13,0.00,,,0.00,0.000000,,2013-01-18 05:03:00,
2013-01-17 21:12:00,48.0,0.0,-100.00,South,187,0.0,7.0,13,0.00,,,0.00,0.000000,,2013-01-18 05:12:00,
2013-01-17 21:22:00,48.0,0.0,-100.00,South,187,0.0,7.0,13,0.00,,,0.00,0.000000,,2013-01-18 05:22:00,
2013-01-17 21:53:00,47.0,-1.0,-100.00,SE,140,0.0,2.0,13,-99.99,,,0.00,0.000000,,2013-01-18 05:53:00,
2013-01-17 22:02:00,47.0,-1.0,-100.00,SE,140,0.0,2.0,13,-99.99,,,0.00,0.000000,,2013-01-18 06:02:00,
2013-01-17 22:52:00,48.0,0.0,-100.00,NW,305,0.0,0.0,13,0.00,,,0.00,0.000000,,2013-01-18 06:52:00,
2013-01-17 23:02:00,48.0,0.0,-100.00,NW,305,0.0,0.0,13,0.00,,,0.00,0.000000,,2013-01-18 07:02:00,
2013-01-17 23:52:00,48.0,0.0,-100.00,NW,315,0.0,5.0,13,-99.99,,,0.00,0.000000,,2013-01-18 07:52:00,